Weather History for Bemidji, MN

Change the Weather History Date:

Saturday, February 8, 2014

  Actual Average Record
Temperature  
Mean Temperature -10 °F -  
Max Temperature 6 °F 17 °F 44 °F (1998)
Min Temperature -26 °F -7 °F -37 °F (1951)
Degree Days  
Heating Degree Days 75    
Moisture  
Dew Point -17 °F    
Average Humidity 72    
Maximum Humidity 80    
Minimum Humidity 59    
Precipitation  
Precipitation 0.00 in - - ()
Sea Level Pressure  
Sea Level Pressure 30.07 in    
Wind  
Wind Speed 2 mph (NNW)    
Max Wind Speed 10 mph    
Max Gust Speed -    
Visibility 10 miles    
Events Snow    
Averages and records for this station are not official NWS values.
T = Trace of Precipitation, MM = Missing Value Source: NWS Daily Summary

Daily Weather History Graph

Daily Weather History Graph

Search for Another Location

Airport:

Trip Planner

Search our weather history database for the weather conditions in past years. The results will help you decide how hot, cold, wet, or windy it might be!

Date:

Astronomy

Feb. 08, 2014 Rise Set
Actual Time 7:36 AM CST 5:32 PM CST
Civil Twilight 7:03 AM CST 6:04 PM CST
Nautical Twilight 6:27 AM CST 6:41 PM CST
Astronomical Twilight 5:51 AM CST 7:16 PM CST
Moon 12:20 PM CST (2/8) 2:55 AM CST (2/8)
Length of Visible Light 11h 00m
Length of Day
9h 56m
Waxing Gibbous, 69% of the Moon is Illuminated
Feb 8
Waxing Gibbous
Feb 14
Full
Feb 22
Last Quarter
Mar 1
New
Mar 8
First Quarter

Hourly Weather History & Observations

Time (CST) Temp. Windchill Dew Point Humidity Pressure Visibility Wind Dir Wind Speed Gust Speed Precip Events Conditions
12:10 AM -16.8 °F - -22.0 °F 77% 30.02 in 10.0 mi Calm Calm - N/A   Clear
12:29 AM -17.0 °F - -22.5 °F 76% 30.02 in 10.0 mi Calm Calm - N/A   Clear
12:49 AM -19.7 °F - -25.6 °F 74% 30.02 in 10.0 mi Calm Calm - N/A   Clear
1:10 AM -18.6 °F - -24.0 °F 76% 30.02 in 10.0 mi Calm Calm - N/A   Clear
1:29 AM -20.0 °F - -25.8 °F 75% 30.02 in 10.0 mi Calm Calm - N/A   Clear
1:49 AM -20.7 °F - -26.9 °F 73% 30.02 in 10.0 mi Calm Calm - N/A   Clear
2:10 AM -21.3 °F - -27.0 °F 75% 30.02 in 10.0 mi Calm Calm - N/A   Clear
2:29 AM -21.6 °F - -27.4 °F 75% 30.02 in 10.0 mi Calm Calm - N/A   Clear
2:49 AM -19.7 °F - -24.9 °F 77% 30.02 in 10.0 mi Calm Calm - N/A   Clear
3:10 AM -21.1 °F - -27.2 °F 73% 30.02 in 10.0 mi Calm Calm - N/A   Clear
3:29 AM -23.1 °F - -28.5 °F 76% 30.02 in 10.0 mi Calm Calm - N/A   Clear
3:49 AM -22.4 °F - -28.1 °F 75% 30.02 in 10.0 mi Calm Calm - N/A   Clear
4:10 AM -22.4 °F - -28.1 °F 75% 30.01 in 10.0 mi Calm Calm - N/A   Clear
4:29 AM -22.4 °F - -28.5 °F 73% 30.02 in 10.0 mi Calm Calm - N/A   Clear
4:49 AM -24.3 °F - -30.1 °F 74% 30.02 in 10.0 mi Calm Calm - N/A   Clear
5:10 AM -24.2 °F - -29.7 °F 75% 30.02 in 10.0 mi Calm Calm - N/A   Clear
5:30 AM -24.7 °F - -30.1 °F 76% 30.02 in 10.0 mi Calm Calm - N/A   Clear
5:49 AM -23.8 °F - -29.2 °F 76% 30.02 in 10.0 mi Calm Calm - N/A   Clear
6:10 AM -25.8 °F - -31.5 °F 74% 30.02 in 10.0 mi Calm Calm - N/A   Clear
6:29 AM -26.7 °F - -31.9 °F 76% 30.02 in 10.0 mi Calm Calm - N/A   Scattered Clouds
6:50 AM -24.7 °F - -30.3 °F 75% 30.02 in 10.0 mi Calm Calm - N/A   Clear
7:10 AM -26.5 °F - -33.0 °F 71% 30.03 in 10.0 mi Calm Calm - N/A   Clear
7:30 AM -26.5 °F - -31.9 °F 76% 30.03 in 10.0 mi Calm Calm - N/A   Clear
7:49 AM -26.5 °F - -32.1 °F 75% 30.04 in 10.0 mi Calm Calm - N/A   Clear
8:10 AM -26.0 °F - -31.7 °F 74% 30.04 in 10.0 mi Calm Calm - N/A   Clear
8:29 AM -25.4 °F - -31.2 °F 74% 30.04 in 10.0 mi Calm Calm - N/A   Clear
8:49 AM -24.3 °F - -30.5 °F 73% 30.04 in 10.0 mi Calm Calm - N/A   Clear
9:10 AM -22.0 °F - -28.7 °F 71% 30.04 in 10.0 mi Calm Calm - N/A   Clear
9:29 AM -18.8 °F - -25.1 °F 73% 30.04 in 10.0 mi Calm Calm - N/A   Clear
9:49 AM -14.8 °F - -21.1 °F 73% 30.05 in 10.0 mi Calm Calm - N/A   Clear
10:10 AM -13.0 °F - -17.7 °F 80% 30.05 in 10.0 mi Calm Calm - N/A   Clear
10:29 AM -10.7 °F - -15.2 °F 80% 30.05 in 10.0 mi Calm Calm - N/A   Clear
10:50 AM -8.7 °F - -14.3 °F 77% 30.05 in 10.0 mi Calm Calm - N/A   Clear
11:10 AM -4.5 °F - -11.6 °F 72% 30.05 in 10.0 mi Calm Calm - N/A   Clear
11:29 AM -2.6 °F - -10.1 °F 70% 30.05 in 10.0 mi Calm Calm - N/A   Clear
11:49 AM 0.1 °F - -7.6 °F 70% 30.05 in 10.0 mi Calm Calm - N/A   Clear
12:10 PM 0.5 °F - -6.7 °F 72% 30.04 in 10.0 mi Calm Calm - N/A   Clear
12:29 PM 2.7 °F - -6.0 °F 67% 30.04 in 10.0 mi Calm Calm - N/A   Clear
12:49 PM 3.7 °F - -5.6 °F 65% 30.04 in 10.0 mi Calm Calm - N/A   Clear
1:10 PM 5.7 °F -7.2 °F -4.5 °F 63% 30.04 in 10.0 mi NW 8.1 mph - N/A   Clear
1:29 PM 5.9 °F -5.8 °F -4.9 °F 61% 30.04 in 10.0 mi NNW 6.9 mph - N/A   Mostly Cloudy
1:49 PM 5.9 °F -5.8 °F -5.4 °F 60% 30.04 in 10.0 mi North 6.9 mph - N/A   Overcast
2:10 PM 6.4 °F -3.9 °F -4.9 °F 60% 30.05 in 10.0 mi North 5.8 mph - N/A   Overcast
2:29 PM 6.6 °F -6.1 °F -4.9 °F 59% 30.05 in 10.0 mi NNW 8.1 mph - N/A   Overcast
2:49 PM 5.9 °F -7.0 °F -4.7 °F 62% 30.05 in 10.0 mi NNW 8.1 mph - N/A   Overcast
3:10 PM 6.1 °F -4.3 °F -4.2 °F 63% 30.06 in 10.0 mi North 5.8 mph - N/A   Overcast
3:29 PM 5.5 °F -8.4 °F -4.0 °F 65% 30.07 in 10.0 mi NNW 9.2 mph - N/A   Scattered Clouds
3:49 PM 4.8 °F -8.3 °F -4.0 °F 67% 30.07 in 10.0 mi North 8.1 mph - N/A   Mostly Cloudy
4:10 PM 3.9 °F -9.4 °F -4.4 °F 69% 30.07 in 10.0 mi North 8.1 mph - N/A   Overcast
4:29 PM 3.6 °F -8.7 °F -4.4 °F 70% 30.08 in 7.0 mi North 6.9 mph - N/A Snow Light Snow
4:49 PM 3.0 °F -10.5 °F -4.5 °F 71% 30.08 in 7.0 mi North 8.1 mph - N/A Snow Light Snow
5:10 PM 2.7 °F -9.7 °F -4.9 °F 71% 30.09 in 7.0 mi North 6.9 mph - N/A Snow Light Snow
5:29 PM 1.9 °F -5.6 °F -5.3 °F 72% 30.09 in 10.0 mi North 3.5 mph - N/A   Scattered Clouds
5:49 PM 1.4 °F -6.2 °F -6.0 °F 71% 30.09 in 10.0 mi North 3.5 mph - N/A   Scattered Clouds
6:10 PM 0.3 °F -7.5 °F -6.9 °F 72% 30.10 in 10.0 mi NW 3.5 mph - N/A   Mostly Cloudy
6:29 PM 0.1 °F -7.7 °F -6.7 °F 73% 30.11 in 10.0 mi NW 3.5 mph - N/A   Overcast
6:49 PM -0.0 °F -7.9 °F -6.9 °F 73% 30.12 in 10.0 mi NW 3.5 mph - N/A   Overcast
7:10 PM -1.7 °F -9.7 °F -8.0 °F 75% 30.13 in 10.0 mi NW 3.5 mph - N/A   Overcast
7:29 PM -1.8 °F -9.9 °F -8.5 °F 73% 30.13 in 10.0 mi NNW 3.5 mph - N/A   Mostly Cloudy
7:49 PM -2.7 °F -11.0 °F -9.9 °F 71% 30.13 in 10.0 mi NNW 3.5 mph - N/A   Overcast
8:10 PM -4.4 °F -18.2 °F -10.7 °F 74% 30.14 in 10.0 mi NW 6.9 mph - N/A   Mostly Cloudy
8:29 PM -4.4 °F -16.7 °F -11.2 °F 72% 30.15 in 10.0 mi NW 5.8 mph - N/A   Scattered Clouds
8:49 PM -4.2 °F -16.5 °F -10.7 °F 74% 30.15 in 10.0 mi NNW 5.8 mph - N/A   Scattered Clouds
9:10 PM -6.0 °F -16.9 °F -12.3 °F 74% 30.16 in 10.0 mi NNW 4.6 mph - N/A   Scattered Clouds
9:29 PM -5.4 °F -18.0 °F -11.6 °F 75% 30.16 in 10.0 mi NW 5.8 mph - N/A   Mostly Cloudy
9:49 PM -4.7 °F -18.6 °F -11.0 °F 74% 30.16 in 10.0 mi NW 6.9 mph - N/A   Overcast
10:10 PM -4.5 °F -20.8 °F -11.2 °F 73% 30.17 in 10.0 mi NW 9.2 mph - N/A   Overcast
10:29 PM -4.9 °F -21.3 °F -11.4 °F 74% 30.17 in 10.0 mi NW 9.2 mph - N/A   Overcast
10:49 PM -5.8 °F -23.4 °F -12.5 °F 73% 30.18 in 10.0 mi NW 10.4 mph - N/A   Overcast
11:10 PM -6.0 °F -21.5 °F -12.5 °F 74% 30.18 in 10.0 mi NW 8.1 mph - N/A   Mostly Cloudy
11:29 PM -7.1 °F -21.4 °F -13.4 °F 74% 30.19 in 10.0 mi WNW 6.9 mph - N/A   Overcast
11:49 PM -8.1 °F -24.1 °F -14.1 °F 75% 30.19 in 10.0 mi NW 8.1 mph - N/A   Scattered Clouds